UAL1361 KRSW-KEWR

Flight info

Callsign UAL1361
Flight time 2h 29m
Altitude 35000
Route CSHEL8 VIYAP Q87 ALWZZ OGRAE Q99 QUART PHLBO4
Aircraft B739/M-SDE2E3FGHIRWXY/LB1

Departure

Time 2026-05-05 22:16
Airport Southwest Florida International Airport (KRSW)

Arrival

Time 2026-05-06 00:45
Airport Newark Liberty International Airport (KEWR)
Time Latitude Longitude Altitude Speed Heading
2026-05-05 22:05 26.52907 -81.75443 42 ft 0 kts 282°
2026-05-05 22:07 26.52906 -81.75435 42 ft 4 kts 283°
2026-05-05 22:07 26.52899 -81.75406 42 ft 4 kts 295°
2026-05-05 22:07 26.52884 -81.75386 42 ft 4 kts 348°
2026-05-05 22:08 26.52876 -81.75384 38 ft 0 kts
2026-05-05 22:09 26.52892 -81.75382 42 ft 6 kts
2026-05-05 22:10 26.52951 -81.75372 41 ft 10 kts
2026-05-05 22:10 26.53034 -81.75357 42 ft 13 kts
2026-05-05 22:10 26.53125 -81.75340 42 ft 13 kts 10°
2026-05-05 22:10 26.53213 -81.75326 43 ft 13 kts
2026-05-05 22:11 26.53294 -81.75359 42 ft 13 kts 328°
2026-05-05 22:11 26.53380 -81.75426 40 ft 17 kts 323°
2026-05-05 22:11 26.53477 -81.75486 38 ft 16 kts
2026-05-05 22:11 26.53553 -81.75407 35 ft 16 kts 54°
2026-05-05 22:12 26.53621 -81.75302 38 ft 18 kts 54°
2026-05-05 22:12 26.53700 -81.75181 37 ft 20 kts 54°
2026-05-05 22:12 26.53783 -81.75054 39 ft 20 kts 53°
2026-05-05 22:12 26.53862 -81.74931 41 ft 19 kts 54°
2026-05-05 22:13 26.53945 -81.74802 41 ft 22 kts 54°
2026-05-05 22:13 26.54034 -81.74667 43 ft 21 kts 53°
2026-05-05 22:13 26.54125 -81.74529 41 ft 23 kts 53°
2026-05-05 22:13 26.54221 -81.74378 41 ft 24 kts 54°
2026-05-05 22:14 26.54325 -81.74219 40 ft 26 kts 53°
2026-05-05 22:14 26.54427 -81.74062 43 ft 22 kts 54°
2026-05-05 22:14 26.54509 -81.73997 43 ft 8 kts 344°
2026-05-05 22:14 26.54558 -81.74029 42 ft 8 kts 327°
2026-05-05 22:15 26.54561 -81.74073 41 ft 4 kts 235°
2026-05-05 22:15 26.54512 -81.74150 40 ft 39 kts 234°
2026-05-05 22:15 26.54215 -81.74606 40 ft 104 kts 234°
2026-05-05 22:15 26.53684 -81.75419 39 ft 153 kts 235°
2026-05-05 22:16 26.53030 -81.76389 433 ft 161 kts 232°
2026-05-05 22:16 26.52320 -81.77405 826 ft 173 kts 235°
2026-05-05 22:16 26.51629 -81.78479 1435 ft 169 kts 236°
2026-05-05 22:16 26.50926 -81.79602 1871 ft 185 kts 235°
2026-05-05 22:17 26.50144 -81.80876 2100 ft 210 kts 239°
2026-05-05 22:17 26.49734 -81.82518 2345 ft 229 kts 266°
2026-05-05 22:17 26.49633 -81.84327 2832 ft 238 kts 266°
2026-05-05 22:17 26.49689 -81.86231 3180 ft 260 kts 286°
2026-05-05 22:18 26.50686 -81.87969 3565 ft 274 kts 323°
2026-05-05 22:18 26.52386 -81.88840 4440 ft 264 kts 348°
2026-05-05 22:18 26.54170 -81.89322 5261 ft 268 kts 349°
2026-05-05 22:18 26.56010 -81.89829 5931 ft 273 kts 347°
2026-05-05 22:19 26.57868 -81.90367 6623 ft 278 kts 346°
2026-05-05 22:19 26.59738 -81.90914 7374 ft 278 kts 344°
2026-05-05 22:19 26.61594 -81.91465 8216 ft 275 kts 343°
2026-05-05 22:19 26.63488 -81.91944 8810 ft 285 kts 354°
2026-05-05 22:20 26.65484 -81.91758 9514 ft 290 kts
2026-05-05 22:20 26.67506 -81.91410 10111 ft 297 kts
2026-05-05 22:20 26.69590 -81.91045 10433 ft 314 kts
2026-05-05 22:20 26.71822 -81.90671 10574 ft 335 kts
2026-05-05 22:21 26.74211 -81.90294 10701 ft 355 kts
2026-05-05 22:21 26.76713 -81.89870 10820 ft 374 kts 10°
2026-05-05 22:21 26.79174 -81.88699 10857 ft 397 kts 28°
2026-05-05 22:21 26.81556 -81.87098 11250 ft 401 kts 28°
2026-05-05 22:22 26.83919 -81.85537 11877 ft 398 kts 27°
2026-05-05 22:22 26.86316 -81.83977 12354 ft 401 kts 27°
2026-05-05 22:22 26.88757 -81.82410 12771 ft 405 kts 26°
2026-05-05 22:22 26.91213 -81.80841 13251 ft 408 kts 26°
2026-05-05 22:23 26.93690 -81.79281 13746 ft 409 kts 24°
2026-05-05 22:23 26.96233 -81.77840 14189 ft 410 kts 22°
2026-05-05 22:23 26.98796 -81.76433 14612 ft 412 kts 22°
2026-05-05 22:23 27.01466 -81.75312 14996 ft 408 kts
2026-05-05 22:24 27.04275 -81.75231 15438 ft 402 kts 350°
2026-05-05 22:24 27.06985 -81.75915 15897 ft 400 kts 340°
2026-05-05 22:24 27.09642 -81.76844 16309 ft 401 kts 339°
2026-05-05 22:24 27.12315 -81.77814 16695 ft 404 kts 339°
2026-05-05 22:25 27.14997 -81.78785 17095 ft 406 kts 339°
2026-05-05 22:25 27.17698 -81.79748 17483 ft 408 kts 340°
2026-05-05 22:25 27.20416 -81.80703 17882 ft 410 kts 340°
2026-05-05 22:25 27.23153 -81.81655 18257 ft 412 kts 340°
2026-05-05 22:26 27.25895 -81.82605 18601 ft 414 kts 340°
2026-05-05 22:26 27.28650 -81.83558 18934 ft 415 kts 340°
2026-05-05 22:26 27.31418 -81.84517 19243 ft 417 kts 340°
2026-05-05 22:26 27.34190 -81.85478 19535 ft 419 kts 340°
2026-05-05 22:27 27.36983 -81.86446 19832 ft 420 kts 340°
2026-05-05 22:27 27.39747 -81.87405 20115 ft 422 kts 339°
2026-05-05 22:27 27.42593 -81.88394 20407 ft 423 kts 339°
2026-05-05 22:27 27.45413 -81.89373 20678 ft 425 kts 339°
2026-05-05 22:28 27.48246 -81.90358 20949 ft 426 kts 339°
2026-05-05 22:28 27.51043 -81.91331 21202 ft 428 kts 339°
2026-05-05 22:28 27.53895 -81.92323 21443 ft 430 kts 339°
2026-05-05 22:28 27.56757 -81.93320 21685 ft 431 kts 339°
2026-05-05 22:29 27.59628 -81.94320 21920 ft 433 kts 339°
2026-05-05 22:29 27.62509 -81.95324 22157 ft 434 kts 339°
2026-05-05 22:29 27.65403 -81.96333 22385 ft 435 kts 339°
2026-05-05 22:29 27.68299 -81.97344 22601 ft 437 kts 339°
2026-05-05 22:30 27.71208 -81.98360 22805 ft 438 kts 339°
2026-05-05 22:30 27.74122 -81.99378 23015 ft 439 kts 339°
2026-05-05 22:30 27.77050 -82.00401 23211 ft 440 kts 339°
2026-05-05 22:30 27.79985 -82.01417 23405 ft 442 kts 339°
2026-05-05 22:31 27.82936 -82.02413 23568 ft 443 kts 339°
2026-05-05 22:31 27.85900 -82.03404 23739 ft 445 kts 339°
2026-05-05 22:31 27.88863 -82.04393 23918 ft 445 kts 339°
2026-05-05 22:31 27.91833 -82.05387 24104 ft 445 kts 339°
2026-05-05 22:32 27.94801 -82.06385 24291 ft 445 kts 339°
2026-05-05 22:32 27.97765 -82.07384 24454 ft 445 kts 339°
2026-05-05 22:32 28.00740 -82.08388 24607 ft 446 kts 339°
2026-05-05 22:32 28.03719 -82.09394 24772 ft 446 kts 339°
2026-05-05 22:33 28.06700 -82.10401 24933 ft 447 kts 339°
2026-05-05 22:33 28.09725 -82.11255 25075 ft 452 kts 347°
2026-05-05 22:33 28.12871 -82.11620 25235 ft 456 kts 351°
2026-05-05 22:33 28.15997 -82.11856 25400 ft 456 kts 351°
2026-05-05 22:34 28.19166 -82.12082 25554 ft 456 kts 351°
2026-05-05 22:34 28.22338 -82.12330 25694 ft 457 kts 351°
2026-05-05 22:34 28.25507 -82.12606 25826 ft 457 kts 350°
2026-05-05 22:34 28.28683 -82.12903 25968 ft 457 kts 350°
2026-05-05 22:35 28.31849 -82.13210 26093 ft 457 kts 350°
2026-05-05 22:35 28.35020 -82.13521 26228 ft 458 kts 349°
2026-05-05 22:35 28.38197 -82.13831 26383 ft 457 kts 350°
2026-05-05 22:35 28.41360 -82.14139 26583 ft 456 kts 350°
2026-05-05 22:36 28.44516 -82.14444 26829 ft 454 kts 350°
2026-05-05 22:36 28.47683 -82.14593 27044 ft 459 kts 358°
2026-05-05 22:36 28.50846 -82.13857 27235 ft 471 kts 11°
2026-05-05 22:36 28.53951 -82.12653 27487 ft 470 kts 12°
2026-05-05 22:37 28.57044 -82.11427 27717 ft 470 kts 12°
2026-05-05 22:37 28.60121 -82.10210 27961 ft 468 kts 12°
2026-05-05 22:37 28.63198 -82.09005 28236 ft 467 kts 12°
2026-05-05 22:37 28.66274 -82.07815 28532 ft 465 kts 12°
2026-05-05 22:38 28.69325 -82.06643 28844 ft 463 kts 11°
2026-05-05 22:38 28.72338 -82.05492 29163 ft 461 kts 11°
2026-05-05 22:38 28.75411 -82.04319 29563 ft 459 kts 11°
2026-05-05 22:38 28.78393 -82.03182 29968 ft 456 kts 11°
2026-05-05 22:39 28.81404 -82.02033 30312 ft 454 kts 11°
2026-05-05 22:39 28.84396 -82.00891 30615 ft 453 kts 11°
2026-05-05 22:39 28.87382 -81.99750 30932 ft 451 kts 11°
2026-05-05 22:39 28.90356 -81.98613 31279 ft 450 kts 11°
2026-05-05 22:40 28.93315 -81.97480 31646 ft 448 kts 11°
2026-05-05 22:40 28.96257 -81.96352 32007 ft 446 kts 10°
2026-05-05 22:40 28.99195 -81.95225 32373 ft 444 kts 10°
2026-05-05 22:40 29.02116 -81.94105 32783 ft 442 kts 10°
2026-05-05 22:41 29.05028 -81.92986 33203 ft 439 kts
2026-05-05 22:41 29.07917 -81.91876 33600 ft 437 kts
2026-05-05 22:41 29.10795 -81.90770 33954 ft 436 kts
2026-05-05 22:41 29.13665 -81.89667 34261 ft 435 kts
2026-05-05 22:42 29.16531 -81.88565 34549 ft 434 kts
2026-05-05 22:42 29.19358 -81.87478 34813 ft 433 kts
2026-05-05 22:42 29.22217 -81.86378 35040 ft 433 kts
2026-05-05 22:43 29.27954 -81.84169 35034 ft 435 kts
2026-05-05 22:43 29.33662 -81.81963 35043 ft 431 kts
2026-05-05 22:44 29.39329 -81.79771 35045 ft 429 kts
2026-05-05 22:44 29.44973 -81.77588 35047 ft 427 kts
2026-05-05 22:45 29.50594 -81.75412 35052 ft 427 kts
2026-05-05 22:45 29.56222 -81.73231 35055 ft 427 kts
2026-05-05 22:46 29.61866 -81.71040 35063 ft 429 kts
2026-05-05 22:46 29.67538 -81.68834 35056 ft 431 kts
2026-05-05 22:47 29.73228 -81.66650 35055 ft 431 kts
2026-05-05 22:47 29.78934 -81.64528 35073 ft 432 kts
2026-05-05 22:48 29.84650 -81.62404 35067 ft 432 kts
2026-05-05 22:48 29.90379 -81.60264 35069 ft 433 kts
2026-05-05 22:49 29.96102 -81.58117 35061 ft 432 kts
2026-05-05 22:49 30.01823 -81.55969 35071 ft 432 kts
2026-05-05 22:50 30.07498 -81.53835 35068 ft 432 kts
2026-05-05 22:50 30.13212 -81.51685 35101 ft 431 kts
2026-05-05 22:51 30.18925 -81.49532 35073 ft 431 kts
2026-05-05 22:51 30.24626 -81.47381 35069 ft 431 kts
2026-05-05 22:52 30.30316 -81.45232 35064 ft 430 kts
2026-05-05 22:52 30.36010 -81.43078 35065 ft 430 kts
2026-05-05 22:53 30.41699 -81.40924 35066 ft 430 kts
2026-05-05 22:53 30.47401 -81.39315 35062 ft 407 kts 351°
2026-05-05 22:54 30.52061 -81.39573 35080 ft 403 kts 348°
2026-05-05 22:54 30.57664 -81.39936 35085 ft 404 kts 348°
2026-05-05 22:55 30.63298 -81.40265 35082 ft 406 kts 349°
2026-05-05 22:55 30.68946 -81.40573 35087 ft 406 kts 349°
2026-05-05 22:56 30.74596 -81.40875 35074 ft 406 kts 349°
2026-05-05 22:56 30.80210 -81.41175 35064 ft 406 kts 349°
2026-05-05 22:57 30.85892 -81.41479 35060 ft 406 kts 349°
2026-05-05 22:57 30.91497 -81.41780 35056 ft 406 kts 349°
2026-05-05 22:58 30.97139 -81.42084 35076 ft 406 kts 349°
2026-05-05 22:58 31.02781 -81.42389 35070 ft 406 kts 349°
2026-05-05 22:59 31.08432 -81.42693 35065 ft 406 kts 349°
2026-05-05 22:59 31.14082 -81.42998 35065 ft 406 kts 349°
2026-05-05 23:00 31.22548 -81.43453 35075 ft 407 kts 351°
2026-05-05 23:00 31.25408 -81.43196 35090 ft 421 kts
2026-05-05 23:00 31.28249 -81.42114 35079 ft 437 kts 13°
2026-05-05 23:01 31.33779 -81.39087 35082 ft 440 kts 15°
2026-05-05 23:01 31.39291 -81.35994 35070 ft 438 kts 15°
2026-05-05 23:02 31.44806 -81.32960 35063 ft 437 kts 14°
2026-05-05 23:02 31.50281 -81.29979 35076 ft 436 kts 14°
2026-05-05 23:03 31.55791 -81.26980 35064 ft 436 kts 15°
2026-05-05 23:03 31.61285 -81.23981 35051 ft 436 kts 15°
2026-05-05 23:04 31.66776 -81.20980 35050 ft 435 kts 15°
2026-05-05 23:04 31.72262 -81.17980 35049 ft 434 kts 15°
2026-05-05 23:05 31.77739 -81.14981 35071 ft 434 kts 15°
2026-05-05 23:05 31.83219 -81.11977 35056 ft 435 kts 15°
2026-05-05 23:06 31.88709 -81.08962 35048 ft 435 kts 15°
2026-05-05 23:06 31.94199 -81.05942 35047 ft 436 kts 15°
2026-05-05 23:07 31.99700 -81.02913 35046 ft 436 kts 15°
2026-05-05 23:07 32.05201 -80.99854 35056 ft 438 kts 15°
2026-05-05 23:08 32.10699 -80.96775 35058 ft 438 kts 15°
2026-05-05 23:08 32.16214 -80.93681 35079 ft 439 kts 15°
2026-05-05 23:09 32.21740 -80.90580 35085 ft 440 kts 16°
2026-05-05 23:09 32.27269 -80.87473 35085 ft 439 kts 16°
2026-05-05 23:10 32.32753 -80.84389 35096 ft 440 kts 16°
2026-05-05 23:10 32.38275 -80.81279 35084 ft 439 kts 16°
2026-05-05 23:11 32.43794 -80.78166 35082 ft 439 kts 16°
2026-05-05 23:11 32.49313 -80.75049 35083 ft 439 kts 16°
2026-05-05 23:12 32.54831 -80.71929 35107 ft 439 kts 16°
2026-05-05 23:12 32.60343 -80.68807 35089 ft 439 kts 16°
2026-05-05 23:13 32.65861 -80.65677 35080 ft 439 kts 16°
2026-05-05 23:13 32.71373 -80.62547 35081 ft 439 kts 16°
2026-05-05 23:14 32.76865 -80.59329 35083 ft 440 kts 17°
2026-05-05 23:14 32.82306 -80.56082 35096 ft 441 kts 17°
2026-05-05 23:15 32.87799 -80.52806 35094 ft 441 kts 17°
2026-05-05 23:15 32.93288 -80.49537 35078 ft 441 kts 17°
2026-05-05 23:16 32.98783 -80.46264 35075 ft 442 kts 17°
2026-05-05 23:16 33.04281 -80.42986 35075 ft 442 kts 17°
2026-05-05 23:17 33.09777 -80.39704 35064 ft 442 kts 17°
2026-05-05 23:17 33.15280 -80.36412 35067 ft 442 kts 17°
2026-05-05 23:18 33.20771 -80.33123 35064 ft 442 kts 17°
2026-05-05 23:18 33.26229 -80.29849 35068 ft 442 kts 17°
2026-05-05 23:19 33.31726 -80.26548 35092 ft 442 kts 17°
2026-05-05 23:19 33.37229 -80.23238 35070 ft 442 kts 17°
2026-05-05 23:20 33.42726 -80.19926 35062 ft 442 kts 17°
2026-05-05 23:20 33.48227 -80.16608 35078 ft 442 kts 17°
2026-05-05 23:21 33.53721 -80.13289 35066 ft 442 kts 17°
2026-05-05 23:21 33.59224 -80.09959 35070 ft 443 kts 17°
2026-05-05 23:22 33.64726 -80.06626 35065 ft 443 kts 17°
2026-05-05 23:22 33.70218 -80.03294 35064 ft 443 kts 17°
2026-05-05 23:23 33.75715 -79.99954 35061 ft 442 kts 17°
2026-05-05 23:23 33.81174 -79.96631 35077 ft 442 kts 17°
2026-05-05 23:24 33.86664 -79.93284 35063 ft 443 kts 17°
2026-05-05 23:24 33.92161 -79.89929 35050 ft 442 kts 17°
2026-05-05 23:25 33.97647 -79.86574 35052 ft 442 kts 17°
2026-05-05 23:25 34.03132 -79.83216 35048 ft 442 kts 17°
2026-05-05 23:26 34.08620 -79.79850 35044 ft 442 kts 17°
2026-05-05 23:26 34.14108 -79.76480 35049 ft 442 kts 17°
2026-05-05 23:27 34.19593 -79.73105 35049 ft 442 kts 17°
2026-05-05 23:27 34.25073 -79.69736 35044 ft 441 kts 17°
2026-05-05 23:28 34.30580 -79.66515 35074 ft 439 kts 15°
2026-05-05 23:28 34.36066 -79.63342 35062 ft 440 kts 15°
2026-05-05 23:29 34.41589 -79.60144 35050 ft 440 kts 16°
2026-05-05 23:29 34.47109 -79.56937 35044 ft 440 kts 16°
2026-05-05 23:30 34.52634 -79.53720 35048 ft 440 kts 16°
2026-05-05 23:30 34.58150 -79.50503 35052 ft 440 kts 16°
2026-05-05 23:31 34.63670 -79.47279 35047 ft 440 kts 16°
2026-05-05 23:31 34.69196 -79.44046 35048 ft 440 kts 16°
2026-05-05 23:32 34.74719 -79.40810 35057 ft 440 kts 16°
2026-05-05 23:32 34.80195 -79.37597 35063 ft 439 kts 16°
2026-05-05 23:33 34.85691 -79.34367 35042 ft 439 kts 16°
2026-05-05 23:33 34.91189 -79.31132 35046 ft 438 kts 16°
2026-05-05 23:34 34.96677 -79.27898 35042 ft 438 kts 16°
2026-05-05 23:34 35.02159 -79.24663 35016 ft 438 kts 16°
2026-05-05 23:35 35.07645 -79.21421 35027 ft 438 kts 16°
2026-05-05 23:35 35.13128 -79.18175 35020 ft 438 kts 16°
2026-05-05 23:36 35.18619 -79.14920 35021 ft 438 kts 16°
2026-05-05 23:36 35.24113 -79.11658 35019 ft 439 kts 16°
2026-05-05 23:37 35.29622 -79.08382 35027 ft 440 kts 16°
2026-05-05 23:37 35.35090 -79.05126 35035 ft 440 kts 17°
2026-05-05 23:38 35.40604 -79.01837 35020 ft 441 kts 17°
2026-05-05 23:38 35.46118 -78.98543 35018 ft 441 kts 17°
2026-05-05 23:39 35.51631 -78.95244 35023 ft 441 kts 17°
2026-05-05 23:39 35.57156 -78.91933 35023 ft 441 kts 17°
2026-05-05 23:40 35.62674 -78.88621 35020 ft 441 kts 17°
2026-05-05 23:40 35.68189 -78.85306 35019 ft 441 kts 17°
2026-05-05 23:41 35.73708 -78.81984 35038 ft 441 kts 17°
2026-05-05 23:41 35.78292 -78.79220 35025 ft 442 kts 17°
2026-05-05 23:42 35.83819 -78.75884 35014 ft 442 kts 17°
2026-05-05 23:42 35.89347 -78.72541 35012 ft 442 kts 17°
2026-05-05 23:43 35.94871 -78.69195 35013 ft 442 kts 17°
2026-05-05 23:43 36.00399 -78.65843 35032 ft 443 kts 17°
2026-05-05 23:44 36.05933 -78.62481 35023 ft 443 kts 17°
2026-05-05 23:44 36.11471 -78.59111 35023 ft 443 kts 18°
2026-05-05 23:45 36.17013 -78.55733 35012 ft 444 kts 18°
2026-05-05 23:45 36.22518 -78.52373 35015 ft 445 kts 18°
2026-05-05 23:46 36.28069 -78.48980 35011 ft 445 kts 18°
2026-05-05 23:46 36.33630 -78.45575 35015 ft 446 kts 18°
2026-05-05 23:47 36.39197 -78.42160 35009 ft 446 kts 18°
2026-05-05 23:47 36.44764 -78.38740 35019 ft 447 kts 18°
2026-05-05 23:48 36.50351 -78.35303 35005 ft 448 kts 18°
2026-05-05 23:48 36.55942 -78.31857 35000 ft 449 kts 18°
2026-05-05 23:49 36.61535 -78.28405 35039 ft 449 kts 18°
2026-05-05 23:49 36.67139 -78.24939 35055 ft 450 kts 18°
2026-05-05 23:50 36.72751 -78.21464 35053 ft 451 kts 18°
2026-05-05 23:50 36.78372 -78.17976 35049 ft 452 kts 18°
2026-05-05 23:51 36.84008 -78.14473 35033 ft 452 kts 18°
2026-05-05 23:51 36.89636 -78.10969 35038 ft 453 kts 18°
2026-05-05 23:52 36.95253 -78.07468 34987 ft 454 kts 18°
2026-05-05 23:52 37.00906 -78.03939 34981 ft 454 kts 18°
2026-05-05 23:53 37.06561 -78.00401 34982 ft 454 kts 18°
2026-05-05 23:53 37.12221 -77.96854 34998 ft 455 kts 19°
2026-05-05 23:54 37.17886 -77.93299 34988 ft 456 kts 19°
2026-05-05 23:54 37.23565 -77.89729 34983 ft 457 kts 19°
2026-05-05 23:55 37.29251 -77.86147 34971 ft 457 kts 19°
2026-05-05 23:55 37.34940 -77.82557 34977 ft 458 kts 19°
2026-05-05 23:56 37.40628 -77.78962 34980 ft 458 kts 19°
2026-05-05 23:56 37.46328 -77.75353 34973 ft 458 kts 19°
2026-05-05 23:57 37.52025 -77.71740 34977 ft 459 kts 19°
2026-05-05 23:57 37.57556 -77.67582 34980 ft 466 kts 26°
2026-05-05 23:58 37.62948 -77.63022 34974 ft 467 kts 26°
2026-05-05 23:58 37.68392 -77.58538 34973 ft 467 kts 26°
2026-05-05 23:59 37.73857 -77.54105 34972 ft 467 kts 26°
2026-05-05 23:59 37.79325 -77.49667 34972 ft 467 kts 26°
2026-05-06 00:00 37.84767 -77.45242 34965 ft 467 kts 26°
2026-05-06 00:00 37.90238 -77.40782 34963 ft 467 kts 26°
2026-05-06 00:01 37.95705 -77.36317 34957 ft 468 kts 26°
2026-05-06 00:01 38.01170 -77.31849 34936 ft 468 kts 26°
2026-05-06 00:02 38.06634 -77.27382 34924 ft 468 kts 26°
2026-05-06 00:02 38.12104 -77.22899 34925 ft 468 kts 26°
2026-05-06 00:03 38.17575 -77.18406 34915 ft 468 kts 26°
2026-05-06 00:03 38.23041 -77.13909 34912 ft 468 kts 26°
2026-05-06 00:04 38.28508 -77.09404 34924 ft 468 kts 26°
2026-05-06 00:04 38.33843 -77.04578 34921 ft 472 kts 31°
2026-05-06 00:05 38.41635 -76.96914 34928 ft 472 kts 31°
2026-05-06 00:06 38.46832 -76.91855 34915 ft 472 kts 31°
2026-05-06 00:06 38.52067 -76.86795 34899 ft 472 kts 30°
2026-05-06 00:07 38.57304 -76.81729 34901 ft 472 kts 31°
2026-05-06 00:07 38.62530 -76.76661 34916 ft 472 kts 31°
2026-05-06 00:08 38.67771 -76.71567 34904 ft 472 kts 31°
2026-05-06 00:08 38.73000 -76.66475 34903 ft 472 kts 31°
2026-05-06 00:09 38.78221 -76.61383 34903 ft 472 kts 31°
2026-05-06 00:09 38.83448 -76.56276 34911 ft 472 kts 31°
2026-05-06 00:10 38.88677 -76.51155 34911 ft 472 kts 31°
2026-05-06 00:10 38.93895 -76.46034 34916 ft 472 kts 31°
2026-05-06 00:11 38.99066 -76.40951 34897 ft 471 kts 31°
2026-05-06 00:11 39.04241 -76.35765 34912 ft 474 kts 34°
2026-05-06 00:11 39.06742 -76.32949 34379 ft 484 kts 36°
2026-05-06 00:12 39.09228 -76.30001 33644 ft 486 kts 38°
2026-05-06 00:12 39.11699 -76.27026 32704 ft 487 kts 38°
2026-05-06 00:12 39.14182 -76.24055 31819 ft 487 kts 38°
2026-05-06 00:12 39.16677 -76.21103 30912 ft 488 kts 38°
2026-05-06 00:13 39.19200 -76.18144 29966 ft 491 kts 39°
2026-05-06 00:13 39.21737 -76.15180 28858 ft 493 kts 39°
2026-05-06 00:13 39.24286 -76.12198 27768 ft 496 kts 40°
2026-05-06 00:13 39.26846 -76.09198 26728 ft 498 kts 40°
2026-05-06 00:14 39.29370 -76.06233 26423 ft 485 kts 40°
2026-05-06 00:14 39.31888 -76.03274 25986 ft 495 kts 40°
2026-05-06 00:14 39.34471 -76.00239 25565 ft 506 kts 40°
2026-05-06 00:14 39.37073 -75.97176 25117 ft 506 kts 40°
2026-05-06 00:15 39.39664 -75.94120 24696 ft 501 kts 41°
2026-05-06 00:15 39.42219 -75.91101 24245 ft 494 kts 41°
2026-05-06 00:15 39.44752 -75.88107 23840 ft 493 kts 41°
2026-05-06 00:15 39.47290 -75.85105 23397 ft 496 kts 41°
2026-05-06 00:16 39.49834 -75.82093 22910 ft 493 kts 41°
2026-05-06 00:16 39.52349 -75.79110 22462 ft 488 kts 41°
2026-05-06 00:16 39.54840 -75.76154 22038 ft 483 kts 41°
2026-05-06 00:16 39.57307 -75.73224 21623 ft 478 kts 41°
2026-05-06 00:17 39.59747 -75.70322 21228 ft 474 kts 41°
2026-05-06 00:17 39.62138 -75.67477 20826 ft 472 kts 41°
2026-05-06 00:17 39.64581 -75.64568 20421 ft 469 kts 41°
2026-05-06 00:17 39.66982 -75.61705 20021 ft 468 kts 41°
2026-05-06 00:18 39.69378 -75.58842 19584 ft 470 kts 41°
2026-05-06 00:18 39.71753 -75.55989 19120 ft 473 kts 41°
2026-05-06 00:18 39.74166 -75.53082 18639 ft 471 kts 41°
2026-05-06 00:18 39.76547 -75.50207 18167 ft 465 kts 41°
2026-05-06 00:19 39.78906 -75.47358 17630 ft 461 kts 41°
2026-05-06 00:19 39.81245 -75.44530 17153 ft 456 kts 41°
2026-05-06 00:19 39.83553 -75.41739 16755 ft 450 kts 42°
2026-05-06 00:19 39.85834 -75.38980 16326 ft 446 kts 42°
2026-05-06 00:20 39.88101 -75.36234 15887 ft 444 kts 42°
2026-05-06 00:20 39.90350 -75.33507 15455 ft 441 kts 42°
2026-05-06 00:20 39.92622 -75.30751 15004 ft 439 kts 42°
2026-05-06 00:20 39.94856 -75.28038 14562 ft 438 kts 42°
2026-05-06 00:21 39.97048 -75.25374 14158 ft 436 kts 41°
2026-05-06 00:21 39.99263 -75.22679 13691 ft 435 kts 41°
2026-05-06 00:21 40.01465 -75.19997 13218 ft 432 kts 41°
2026-05-06 00:21 40.03652 -75.17330 12758 ft 428 kts 41°
2026-05-06 00:22 40.05821 -75.14683 12314 ft 424 kts 41°
2026-05-06 00:22 40.07958 -75.12072 11899 ft 417 kts 41°
2026-05-06 00:22 40.10045 -75.09521 11481 ft 405 kts 41°
2026-05-06 00:22 40.12077 -75.07033 11079 ft 395 kts 41°
2026-05-06 00:23 40.14055 -75.04611 10707 ft 385 kts 41°
2026-05-06 00:23 40.15985 -75.02245 10372 ft 376 kts 41°
2026-05-06 00:23 40.17868 -74.99935 10012 ft 367 kts 41°
2026-05-06 00:23 40.19696 -74.97690 9937 ft 352 kts 40°
2026-05-06 00:24 40.21437 -74.95552 9912 ft 335 kts 40°
2026-05-06 00:24 40.23104 -74.93501 9835 ft 323 kts 40°
2026-05-06 00:24 40.24712 -74.91524 9742 ft 312 kts 40°
2026-05-06 00:24 40.26253 -74.89555 9462 ft 308 kts 44°
2026-05-06 00:25 40.27718 -74.87503 9066 ft 309 kts 45°
2026-05-06 00:25 40.29177 -74.85423 8645 ft 311 kts 45°
2026-05-06 00:25 40.30624 -74.83364 8196 ft 306 kts 45°
2026-05-06 00:25 40.32081 -74.81307 7838 ft 307 kts 44°
2026-05-06 00:26 40.33535 -74.79261 7678 ft 306 kts 45°
2026-05-06 00:26 40.34500 -74.77904 7633 ft 308 kts 44°
2026-05-06 00:26 40.35967 -74.75841 7612 ft 309 kts 44°
2026-05-06 00:26 40.37932 -74.73077 7476 ft 317 kts 44°
2026-05-06 00:27 40.39438 -74.70955 7291 ft 317 kts 45°
2026-05-06 00:27 40.40451 -74.69527 7167 ft 316 kts 45°
2026-05-06 00:27 40.42017 -74.67539 6969 ft 311 kts 30°
2026-05-06 00:27 40.43952 -74.66428 6788 ft 299 kts
2026-05-06 00:28 40.45966 -74.65853 6636 ft 296 kts
2026-05-06 00:28 40.47997 -74.65345 6472 ft 297 kts
2026-05-06 00:28 40.50026 -74.64840 6302 ft 297 kts
2026-05-06 00:28 40.52057 -74.64322 6133 ft 298 kts
2026-05-06 00:29 40.54090 -74.63792 5967 ft 298 kts
2026-05-06 00:29 40.56124 -74.63252 5793 ft 299 kts
2026-05-06 00:29 40.58167 -74.62706 5612 ft 299 kts
2026-05-06 00:29 40.60181 -74.62167 5446 ft 299 kts
2026-05-06 00:30 40.62223 -74.61620 5283 ft 300 kts
2026-05-06 00:30 40.63983 -74.61147 5117 ft 299 kts
2026-05-06 00:30 40.65968 -74.60561 4937 ft 302 kts 14°
2026-05-06 00:30 40.67823 -74.59128 4759 ft 310 kts 41°
2026-05-06 00:31 40.69298 -74.57116 4624 ft 309 kts 46°
2026-05-06 00:31 40.70738 -74.55005 4443 ft 310 kts 47°
2026-05-06 00:31 40.72163 -74.52898 4263 ft 310 kts 47°
2026-05-06 00:31 40.73612 -74.50772 4111 ft 310 kts 48°
2026-05-06 00:32 40.75072 -74.48678 3939 ft 310 kts 47°
2026-05-06 00:32 40.76534 -74.46590 3755 ft 309 kts 47°
2026-05-06 00:32 40.77964 -74.44561 3872 ft 299 kts 47°
2026-05-06 00:32 40.79390 -74.42546 3985 ft 297 kts 47°
2026-05-06 00:33 40.80750 -74.40606 4072 ft 281 kts 47°
2026-05-06 00:33 40.82045 -74.38753 4000 ft 268 kts 48°
2026-05-06 00:33 40.83287 -74.36991 4005 ft 257 kts 47°
2026-05-06 00:33 40.84496 -74.35269 4008 ft 256 kts 47°
2026-05-06 00:34 40.85707 -74.33521 4026 ft 257 kts 47°
2026-05-06 00:34 40.86924 -74.31752 3995 ft 262 kts 47°
2026-05-06 00:34 40.88158 -74.29948 4012 ft 266 kts 48°
2026-05-06 00:34 40.89397 -74.28144 4007 ft 261 kts 47°
2026-05-06 00:35 40.90569 -74.26430 4052 ft 241 kts 48°
2026-05-06 00:35 40.91661 -74.24844 3976 ft 227 kts 48°
2026-05-06 00:35 40.92723 -74.23331 3994 ft 226 kts 47°
2026-05-06 00:35 40.93803 -74.21793 4015 ft 233 kts 47°
2026-05-06 00:36 40.94924 -74.20184 4081 ft 233 kts 47°
2026-05-06 00:36 40.95964 -74.18688 4015 ft 226 kts 47°
2026-05-06 00:36 40.97038 -74.17153 4006 ft 228 kts 47°
2026-05-06 00:36 40.98116 -74.15605 3996 ft 234 kts 49°
2026-05-06 00:37 40.98883 -74.13724 3945 ft 227 kts 85°
2026-05-06 00:37 40.98786 -74.11767 3735 ft 202 kts 124°
2026-05-06 00:37 40.97973 -74.10455 3374 ft 175 kts 162°
2026-05-06 00:37 40.96882 -74.09888 3059 ft 166 kts 173°
2026-05-06 00:38 40.95766 -74.09596 3041 ft 166 kts 180°
2026-05-06 00:38 40.94622 -74.09378 2998 ft 165 kts 180°
2026-05-06 00:38 40.93498 -74.09165 2989 ft 162 kts 181°
2026-05-06 00:38 40.92388 -74.08956 3002 ft 162 kts 180°
2026-05-06 00:39 40.91275 -74.08744 2997 ft 162 kts 180°
2026-05-06 00:39 40.90164 -74.08531 2987 ft 160 kts 180°
2026-05-06 00:39 40.89049 -74.08318 3000 ft 164 kts 180°
2026-05-06 00:39 40.87922 -74.08102 2990 ft 163 kts 180°
2026-05-06 00:40 40.86795 -74.07885 2981 ft 164 kts 181°
2026-05-06 00:40 40.85671 -74.07668 2992 ft 163 kts 181°
2026-05-06 00:40 40.84544 -74.07452 3007 ft 164 kts 180°
2026-05-06 00:40 40.83436 -74.07549 2842 ft 157 kts 208°
2026-05-06 00:41 40.82465 -74.08162 2698 ft 156 kts 202°
2026-05-06 00:41 40.81419 -74.08630 2406 ft 157 kts 208°
2026-05-06 00:41 40.80503 -74.09304 2255 ft 147 kts 210°
2026-05-06 00:41 40.79610 -74.09849 2079 ft 135 kts 206°
2026-05-06 00:42 40.78803 -74.10371 1921 ft 119 kts 205°
2026-05-06 00:42 40.78093 -74.10827 1745 ft 110 kts 207°
2026-05-06 00:42 40.77428 -74.11256 1599 ft 106 kts 207°
2026-05-06 00:42 40.76736 -74.11702 1498 ft 115 kts 205°
2026-05-06 00:43 40.75985 -74.12174 1319 ft 122 kts 206°
2026-05-06 00:43 40.75225 -74.12663 1132 ft 123 kts 207°
2026-05-06 00:43 40.74466 -74.13153 1020 ft 123 kts 205°
2026-05-06 00:43 40.73673 -74.13652 840 ft 130 kts 207°
2026-05-06 00:44 40.72843 -74.14181 707 ft 137 kts 206°
2026-05-06 00:44 40.71988 -74.14733 519 ft 134 kts 205°
2026-05-06 00:44 40.71178 -74.15244 345 ft 123 kts 205°
2026-05-06 00:44 40.70410 -74.15735 168 ft 124 kts 205°
2026-05-06 00:45 40.69651 -74.16223 36 ft 116 kts 205°
2026-05-06 00:45 40.69026 -74.16619 22 ft 74 kts 206°
2026-05-06 00:45 40.68758 -74.16845 22 ft 34 kts 232°
2026-05-06 00:45 40.68663 -74.17023 24 ft 10 kts 235°
2026-05-06 00:46 40.68626 -74.17103 21 ft 13 kts 252°
2026-05-06 00:46 40.68651 -74.17224 22 ft 14 kts 297°
2026-05-06 00:46 40.68696 -74.17333 25 ft 14 kts 313°
2026-05-06 00:46 40.68793 -74.17308 22 ft 19 kts 25°
2026-05-06 00:47 40.68925 -74.17226 21 ft 23 kts 25°
2026-05-06 00:47 40.69073 -74.17132 21 ft 22 kts 25°
2026-05-06 00:47 40.69187 -74.17060 21 ft 15 kts 26°
2026-05-06 00:47 40.69277 -74.17003 21 ft 14 kts 20°
2026-05-06 00:48 40.69384 -74.16975 21 ft 16 kts
2026-05-06 00:48 40.69498 -74.16980 21 ft 18 kts 351°
2026-05-06 00:48 40.69630 -74.17018 21 ft 21 kts 344°
2026-05-06 00:48 40.69757 -74.17104 21 ft 20 kts 325°
2026-05-06 00:49 40.69866 -74.17233 21 ft 21 kts 313°
2026-05-06 00:49 40.69947 -74.17388 21 ft 20 kts 291°
2026-05-06 00:49 40.69971 -74.17569 21 ft 20 kts 274°
2026-05-06 00:49 40.69980 -74.17711 21 ft 11 kts 277°
2026-05-06 00:50 40.69987 -74.17790 21 ft 8 kts 275°
2026-05-06 00:50 40.69970 -74.17848 22 ft 4 kts 223°
2026-05-06 00:50 40.69966 -74.17852 23 ft 0 kts 221°
2026-05-06 00:51 40.69948 -74.17869 22 ft 4 kts 209°
2026-05-06 00:51 40.69922 -74.17877 21 ft 0 kts 186°
2026-05-06 00:51 40.69920 -74.17877 21 ft 1 kts 185°
2026-05-06 00:51 40.69918 -74.17878 21 ft 0 kts 185°